TISAT 1

Last updated on Wed Aug 19 2026 00:03:46 GMT+0000 (Coordinated Universal Time)

1 36799U 10035E 26230.39409560 .00021156 00000+0 64696-3 0 9990 2 36799 98.0734 182.5842 0004028 59.5975 300.5663 15.33885780877239
UTC large
Height (km)
Speed (km/s)
/
Latitude / Longitude
Inclination (degrees)
Orbital Period (minutes)
Azimuth
Elevation
Range (km)
Doppler Factor

Next 0 passes for location: London (51.5072 / 0.1276)

No passes found over London.
TISAT 1